Regional Weather Roundup
Issued by NWS

Home | Current Version | Previous Version | Graphics & Text | Print | Product List | Glossary On
Versions: 1 2 3 4 5 6 7 8 9 10 11 12 13 14 15 16 17 18 19 20 21 22 23 24 25 26 27 28 29 30 31 32 33 34 35 36 37 38 39 40 41 42 43 44 45 46 47 48 49 50
000
ASUS44 KMEG 251900
RWRTN
TENNESSEE HOURLY STATE WEATHER ROUNDUP
NATIONAL WEATHER SERVICE MEMPHIS TN
100 PM CST THU DEC 25 2014

TNZ002-004-019-021-049-052-054-088>092-252000-
WEST TENNESSEE

CITY           SKY/WX    TMP DP  RH WIND       PRES   REMARKS
MEMPHIS INTL   MOSUNNY   53  34  48 SW9       30.15F
NWS MEMPHIS      N/A     52 N/A N/A MISG        N/A
JACKSON        LGT RAIN  51  33  50 SW8       30.16F
DYERSBURG      SUNNY     50  28  43 S9        30.15F
UNION CITY     SUNNY     46  36  66 SW12      30.14S
PARIS          SUNNY     48  34  57 S10       30.14F
LEXINGTON      SUNNY     48  34  57 S8        30.14F
SAVANNAH       SUNNY     48  36  61 SE5       30.16F
$$

TNZ008-025-027-028-033-062-065-066-252000-
NORTH MIDDLE TENNESSEE

CITY           SKY/WX    TMP DP  RH WIND       PRES   REMARKS
NASHVILLE      MOSUNNY   46  34  62 S8        30.18F
CLARKSVILLE    SUNNY     47  34  60 S10       30.15F
SMYRNA         MOSUNNY   46  36  66 S8        30.19F
CROSSVILLE     MOSUNNY   41  31  67 VRB3      30.16F
$$

TNZ061-075-076-078-094-096-097-252000-
SOUTH MIDDLE TENNESSEE

CITY           SKY/WX    TMP DP  RH WIND       PRES   REMARKS
FAYETTEVILLE   SUNNY     45  34  65 MISG      30.17F
TULLAHOMA      SUNNY     45  34  65 SE7       30.17F
WINCHESTER     SUNNY     46  34  61 W3        30.17F
SHELBYVILLE    MOSUNNY   46  36  66 S7        30.18F
$$

TNZ017-018-042-046-047-252000-
NORTHEAST TENNESSEE

CITY           SKY/WX    TMP DP  RH WIND       PRES   REMARKS
TRI CITIES     MOSUNNY   44  30  57 NW8       30.17R
ELIZABETHTON   MOCLDY    43  28  56 W10       30.16S
$$

TNZ012-013-036-069-073-074-252000-
CENTRAL EAST TENNESSEE

CITY           SKY/WX    TMP DP  RH WIND       PRES   REMARKS
KNOXVILLE      MOSUNNY   48  33  56 W5        30.18F
OAK RIDGE      CLOUDY    47  33  58 W5        30.19F
GATLINBURG     CLEAR     48  32  53 W6        30.17F
$$

TNZ083-085-099-252000-
SOUTHEAST TENNESSEE

CITY           SKY/WX    TMP DP  RH WIND       PRES   REMARKS
CHATTANOOGA    MOSUNNY   49  34  56 VRB3      30.19F
$$

SKY/WX REPORTED AS FAIR MEANS FEW OR NO CLOUDS BELOW
12 THOUSAND FEET.




USA.gov is the U.S. government's official web portal to all federal, state and local government web resources and services.